Time,TemperatureF,DewpointF,PressureIn,WindDirection,WindDirectionDegrees,WindSpeedMPH,WindSpeedGustMPH,Humidity,HourlyPrecipIn,Conditions,Clouds,dailyrainin,SolarRadiationWatts/m^2,SoftwareType,DateUTC
2013-01-15 00:12:00,9.0,-7.0,-100.00,South,177,11.0,16.0,48,0.00,,,0.00,0.000000,,2013-01-15 07:12:00,
2013-01-15 00:22:00,9.0,-7.0,-100.00,South,177,11.0,16.0,48,0.00,,,0.00,0.000000,,2013-01-15 07:22:00,
2013-01-15 00:33:00,9.0,-7.0,-100.00,South,177,11.0,16.0,48,0.00,,,0.00,0.000000,,2013-01-15 07:33:00,
2013-01-15 00:42:00,9.0,-7.0,-100.00,South,177,11.0,16.0,48,0.00,,,0.00,0.000000,,2013-01-15 07:42:00,
2013-01-15 00:51:00,10.0,-6.0,-100.00,South,178,11.0,16.0,47,0.00,,,0.00,0.000000,,2013-01-15 07:51:00,
2013-01-15 01:22:00,10.0,-6.0,-100.00,South,178,11.0,16.0,47,0.00,,,0.00,0.000000,,2013-01-15 08:22:00,
2013-01-15 01:33:00,10.0,-6.0,-100.00,South,178,11.0,16.0,47,0.00,,,0.00,0.000000,,2013-01-15 08:33:00,
2013-01-15 01:42:00,10.0,-6.0,-100.00,South,178,11.0,16.0,47,0.00,,,0.00,0.000000,,2013-01-15 08:42:00,
2013-01-15 01:51:00,11.0,-5.0,-100.00,South,178,11.0,16.0,47,0.00,,,0.00,0.000000,,2013-01-15 08:51:00,
2013-01-15 02:22:00,11.0,-5.0,-100.00,South,178,11.0,16.0,47,0.00,,,0.00,0.000000,,2013-01-15 09:22:00,
2013-01-15 02:33:00,11.0,-5.0,-100.00,South,178,11.0,16.0,47,0.00,,,0.00,0.000000,,2013-01-15 09:33:00,
2013-01-15 02:42:00,11.0,-5.0,-100.00,South,178,11.0,16.0,47,0.00,,,0.00,0.000000,,2013-01-15 09:42:00,
2013-01-15 02:51:00,12.0,-3.0,-100.00,South,182,8.0,15.0,50,0.00,,,0.00,0.000000,,2013-01-15 09:51:00,
2013-01-15 03:12:00,12.0,-3.0,-100.00,South,182,8.0,15.0,50,0.00,,,0.00,0.000000,,2013-01-15 10:12:00,
2013-01-15 03:22:00,12.0,-3.0,-100.00,South,182,8.0,15.0,50,0.00,,,0.00,0.000000,,2013-01-15 10:22:00,
2013-01-15 03:32:00,12.0,-3.0,-100.00,South,182,8.0,15.0,50,0.00,,,0.00,0.000000,,2013-01-15 10:32:00,
2013-01-15 03:42:00,12.0,-3.0,-100.00,South,182,8.0,15.0,50,0.00,,,0.00,0.000000,,2013-01-15 10:42:00,
2013-01-15 03:51:00,13.0,1.0,-100.00,South,185,8.0,13.0,57,0.00,,,0.00,0.000000,,2013-01-15 10:51:00,
2013-01-15 04:12:00,13.0,1.0,-100.00,South,185,8.0,13.0,57,0.00,,,0.00,0.000000,,2013-01-15 11:12:00,
2013-01-15 04:22:00,13.0,1.0,-100.00,South,185,8.0,13.0,57,0.00,,,0.00,0.000000,,2013-01-15 11:22:00,
2013-01-15 04:33:00,13.0,1.0,-100.00,South,185,8.0,13.0,57,0.00,,,0.00,0.000000,,2013-01-15 11:33:00,
2013-01-15 04:42:00,13.0,1.0,-100.00,South,185,8.0,13.0,57,0.00,,,0.00,0.000000,,2013-01-15 11:42:00,
2013-01-15 04:51:00,14.0,4.0,-100.00,South,185,10.0,15.0,63,0.00,,,0.00,0.000000,,2013-01-15 11:51:00,
2013-01-15 05:12:00,14.0,4.0,-100.00,South,185,10.0,15.0,63,0.00,,,0.00,0.000000,,2013-01-15 12:12:00,
2013-01-15 05:22:00,14.0,4.0,-100.00,South,185,10.0,15.0,63,0.00,,,0.00,0.000000,,2013-01-15 12:22:00,
2013-01-15 05:33:00,14.0,4.0,-100.00,South,185,10.0,15.0,63,0.00,,,0.00,0.000000,,2013-01-15 12:33:00,
2013-01-15 05:42:00,14.0,4.0,-100.00,South,185,10.0,15.0,63,0.00,,,0.00,0.000000,,2013-01-15 12:42:00,
2013-01-15 05:51:00,15.0,6.0,-100.00,SSW,202,8.0,14.0,66,0.00,,,0.00,0.000000,,2013-01-15 12:51:00,
2013-01-15 06:23:00,15.0,6.0,-100.00,SSW,202,8.0,14.0,66,0.00,,,0.00,0.000000,,2013-01-15 13:23:00,
2013-01-15 06:33:00,15.0,6.0,-100.00,SSW,202,8.0,14.0,66,0.00,,,0.00,0.000000,,2013-01-15 13:33:00,
2013-01-15 06:43:00,15.0,6.0,-100.00,SSW,202,8.0,14.0,66,0.00,,,0.00,0.000000,,2013-01-15 13:43:00,
2013-01-15 06:51:00,16.0,7.0,-100.00,SW,220,10.0,14.0,68,0.00,,,0.00,0.000000,,2013-01-15 13:51:00,
2013-01-15 07:12:00,16.0,7.0,-100.00,SW,220,10.0,14.0,68,0.00,,,0.00,0.000000,,2013-01-15 14:12:00,
2013-01-15 07:23:00,16.0,7.0,-100.00,SW,220,10.0,14.0,68,0.00,,,0.00,0.000000,,2013-01-15 14:23:00,
2013-01-15 07:33:00,16.0,7.0,-100.00,SW,220,10.0,14.0,68,0.00,,,0.00,0.000000,,2013-01-15 14:33:00,
2013-01-15 07:43:00,16.0,7.0,-100.00,SW,220,10.0,14.0,68,0.00,,,0.00,0.000000,,2013-01-15 14:43:00,
2013-01-15 07:51:00,17.0,11.0,-100.00,SW,216,6.0,13.0,77,0.00,,,0.00,1.000000,,2013-01-15 14:51:00,
2013-01-15 08:12:00,17.0,11.0,-100.00,SW,216,6.0,13.0,77,0.00,,,0.00,1.000000,,2013-01-15 15:12:00,
2013-01-15 08:23:00,17.0,11.0,-100.00,SW,216,6.0,13.0,77,0.00,,,0.00,1.000000,,2013-01-15 15:23:00,
2013-01-15 08:33:00,17.0,11.0,-100.00,SW,216,6.0,13.0,77,0.00,,,0.00,1.000000,,2013-01-15 15:33:00,
2013-01-15 08:43:00,17.0,11.0,-100.00,SW,216,6.0,13.0,77,0.00,,,0.00,1.000000,,2013-01-15 15:43:00,
2013-01-15 08:51:00,20.0,15.0,-100.00,SSW,205,6.0,9.0,79,0.00,,,0.00,28.000000,,2013-01-15 15:51:00,
2013-01-15 09:22:00,20.0,15.0,-100.00,SSW,205,6.0,9.0,79,0.00,,,0.00,28.000000,,2013-01-15 16:22:00,
2013-01-15 09:33:00,20.0,15.0,-100.00,SSW,205,6.0,9.0,79,0.00,,,0.00,28.000000,,2013-01-15 16:33:00,
2013-01-15 09:42:00,20.0,15.0,-100.00,SSW,205,6.0,9.0,79,0.00,,,0.00,28.000000,,2013-01-15 16:42:00,
2013-01-15 09:51:00,23.0,17.0,-100.00,SSW,195,8.0,11.0,79,0.00,,,0.00,70.000000,,2013-01-15 16:51:00,
2013-01-15 10:12:00,23.0,17.0,-100.00,SSW,195,8.0,11.0,79,0.00,,,0.00,70.000000,,2013-01-15 17:12:00,
2013-01-15 10:22:00,23.0,17.0,-100.00,SSW,195,8.0,11.0,79,0.00,,,0.00,70.000000,,2013-01-15 17:22:00,
2013-01-15 10:33:00,23.0,17.0,-100.00,SSW,195,8.0,11.0,79,0.00,,,0.00,70.000000,,2013-01-15 17:33:00,
2013-01-15 10:42:00,23.0,17.0,-100.00,SSW,195,8.0,11.0,79,0.00,,,0.00,70.000000,,2013-01-15 17:42:00,
2013-01-15 10:51:00,25.0,19.0,-100.00,SW,219,8.0,12.0,76,0.00,,,0.00,135.000000,,2013-01-15 17:51:00,
2013-01-15 11:13:00,25.0,19.0,-100.00,SW,219,8.0,12.0,76,0.00,,,0.00,135.000000,,2013-01-15 18:13:00,
2013-01-15 11:23:00,25.0,19.0,-100.00,SW,219,8.0,12.0,76,0.00,,,0.00,135.000000,,2013-01-15 18:23:00,
2013-01-15 11:33:00,25.0,19.0,-100.00,SW,219,8.0,12.0,76,0.00,,,0.00,135.000000,,2013-01-15 18:33:00,
2013-01-15 11:43:00,25.0,19.0,-100.00,SW,219,8.0,12.0,76,0.00,,,0.00,135.000000,,2013-01-15 18:43:00,
2013-01-15 11:51:00,27.0,21.0,-100.00,SSW,211,8.0,12.0,79,0.00,,,0.00,137.000000,,2013-01-15 18:51:00,
2013-01-15 12:12:00,27.0,21.0,-100.00,SSW,211,8.0,12.0,79,0.00,,,0.00,137.000000,,2013-01-15 19:12:00,
2013-01-15 12:23:00,27.0,21.0,-100.00,SSW,211,8.0,12.0,79,0.00,,,0.00,137.000000,,2013-01-15 19:23:00,
2013-01-15 12:33:00,27.0,21.0,-100.00,SSW,211,8.0,12.0,79,0.00,,,0.00,137.000000,,2013-01-15 19:33:00,
2013-01-15 12:42:00,27.0,21.0,-100.00,SSW,211,8.0,12.0,79,0.00,,,0.00,137.000000,,2013-01-15 19:42:00,
2013-01-15 12:51:00,29.0,23.0,-100.00,SW,223,9.0,12.0,79,0.00,,,0.00,179.000000,,2013-01-15 19:51:00,
2013-01-15 13:23:00,29.0,23.0,-100.00,SW,223,9.0,12.0,79,0.00,,,0.00,179.000000,,2013-01-15 20:23:00,
2013-01-15 13:33:00,29.0,23.0,-100.00,SW,223,9.0,12.0,79,0.00,,,0.00,179.000000,,2013-01-15 20:33:00,
2013-01-15 13:43:00,29.0,23.0,-100.00,SW,223,9.0,12.0,79,0.00,,,0.00,179.000000,,2013-01-15 20:43:00,
2013-01-15 13:51:00,33.0,25.0,-100.00,WSW,252,5.0,13.0,73,0.00,,,0.00,211.000000,,2013-01-15 20:51:00,
2013-01-15 14:13:00,33.0,25.0,-100.00,WSW,252,5.0,13.0,73,0.00,,,0.00,211.000000,,2013-01-15 21:13:00,
2013-01-15 14:23:00,33.0,25.0,-100.00,WSW,252,5.0,13.0,73,0.00,,,0.00,211.000000,,2013-01-15 21:23:00,
2013-01-15 14:33:00,33.0,25.0,-100.00,WSW,252,5.0,13.0,73,0.00,,,0.00,211.000000,,2013-01-15 21:33:00,
2013-01-15 14:43:00,33.0,25.0,-100.00,WSW,252,5.0,13.0,73,0.00,,,0.00,211.000000,,2013-01-15 21:43:00,
2013-01-15 14:51:00,32.0,26.0,-100.00,WNW,289,10.0,17.0,78,0.00,,,0.00,137.000000,,2013-01-15 21:51:00,
2013-01-15 15:12:00,32.0,26.0,-100.00,WNW,289,10.0,17.0,78,0.00,,,0.00,137.000000,,2013-01-15 22:12:00,
2013-01-15 15:23:00,32.0,26.0,-100.00,WNW,289,10.0,17.0,78,0.00,,,0.00,137.000000,,2013-01-15 22:23:00,
2013-01-15 15:33:00,32.0,26.0,-100.00,WNW,289,10.0,17.0,78,0.00,,,0.00,137.000000,,2013-01-15 22:33:00,
2013-01-15 15:43:00,32.0,26.0,-100.00,WNW,289,10.0,17.0,78,0.00,,,0.00,137.000000,,2013-01-15 22:43:00,
2013-01-15 15:51:00,33.0,25.0,-100.00,NW,318,10.0,16.0,73,0.00,,,0.00,68.000000,,2013-01-15 22:51:00,
2013-01-15 16:13:00,33.0,25.0,-100.00,NW,318,10.0,16.0,73,0.00,,,0.00,68.000000,,2013-01-15 23:13:00,
2013-01-15 16:22:00,33.0,25.0,-100.00,NW,318,10.0,16.0,73,0.00,,,0.00,68.000000,,2013-01-15 23:22:00,
2013-01-15 16:33:00,33.0,25.0,-100.00,NW,318,10.0,16.0,73,0.00,,,0.00,68.000000,,2013-01-15 23:33:00,
2013-01-15 16:43:00,33.0,25.0,-100.00,NW,318,10.0,16.0,73,0.00,,,0.00,68.000000,,2013-01-15 23:43:00,
2013-01-15 16:51:00,31.0,27.0,-100.00,NW,310,4.0,25.0,85,0.00,,,0.00,7.000000,,2013-01-15 23:51:00,
2013-01-15 17:22:00,31.0,27.0,-100.00,NW,310,4.0,25.0,85,0.00,,,0.00,7.000000,,2013-01-16 00:22:00,
2013-01-15 17:33:00,31.0,27.0,-100.00,NW,310,4.0,25.0,85,0.00,,,0.00,7.000000,,2013-01-16 00:33:00,
2013-01-15 17:43:00,31.0,27.0,-100.00,NW,310,4.0,25.0,85,0.00,,,0.00,7.000000,,2013-01-16 00:43:00,
2013-01-15 17:51:00,33.0,22.0,-100.00,NW,309,12.0,24.0,64,0.00,,,0.00,0.000000,,2013-01-16 00:51:00,
2013-01-15 18:12:00,33.0,22.0,-100.00,NW,309,12.0,24.0,64,0.00,,,0.00,0.000000,,2013-01-16 01:12:00,
2013-01-15 18:22:00,33.0,22.0,-100.00,NW,309,12.0,24.0,64,0.00,,,0.00,0.000000,,2013-01-16 01:22:00,
2013-01-15 18:33:00,33.0,22.0,-100.00,NW,309,12.0,24.0,64,0.00,,,0.00,0.000000,,2013-01-16 01:33:00,
2013-01-15 18:42:00,33.0,22.0,-100.00,NW,309,12.0,24.0,64,0.00,,,0.00,0.000000,,2013-01-16 01:42:00,
2013-01-15 18:51:00,34.0,23.0,-100.00,NW,312,10.0,17.0,63,0.00,,,0.00,0.000000,,2013-01-16 01:51:00,
2013-01-15 19:22:00,34.0,23.0,-100.00,NW,312,10.0,17.0,63,0.00,,,0.00,0.000000,,2013-01-16 02:22:00,
2013-01-15 19:32:00,34.0,23.0,-100.00,NW,312,10.0,17.0,63,0.00,,,0.00,0.000000,,2013-01-16 02:32:00,
2013-01-15 19:42:00,34.0,23.0,-100.00,NW,312,10.0,17.0,63,0.00,,,0.00,0.000000,,2013-01-16 02:42:00,
2013-01-15 19:51:00,34.0,21.0,-100.00,NW,316,14.0,27.0,59,0.00,,,0.00,0.000000,,2013-01-16 02:51:00,
2013-01-15 20:12:00,34.0,21.0,-100.00,NW,316,14.0,27.0,59,0.00,,,0.00,0.000000,,2013-01-16 03:12:00,
2013-01-15 20:22:00,34.0,21.0,-100.00,NW,316,14.0,27.0,59,0.00,,,0.00,0.000000,,2013-01-16 03:22:00,
2013-01-15 20:33:00,34.0,21.0,-100.00,NW,316,14.0,27.0,59,0.00,,,0.00,0.000000,,2013-01-16 03:33:00,
2013-01-15 20:43:00,34.0,21.0,-100.00,NW,316,14.0,27.0,59,0.00,,,0.00,0.000000,,2013-01-16 03:43:00,
2013-01-15 20:51:00,36.0,21.0,-100.00,NW,323,25.0,32.0,55,0.00,,,0.00,0.000000,,2013-01-16 03:51:00,
2013-01-15 21:12:00,36.0,21.0,-100.00,NW,323,25.0,32.0,55,0.00,,,0.00,0.000000,,2013-01-16 04:12:00,
2013-01-15 21:22:00,36.0,21.0,-100.00,NW,323,25.0,32.0,55,0.00,,,0.00,0.000000,,2013-01-16 04:22:00,
2013-01-15 21:32:00,36.0,21.0,-100.00,NW,323,25.0,32.0,55,0.00,,,0.00,0.000000,,2013-01-16 04:32:00,
2013-01-15 21:42:00,36.0,21.0,-100.00,NW,323,25.0,32.0,55,0.00,,,0.00,0.000000,,2013-01-16 04:42:00,
2013-01-15 21:51:00,34.0,19.0,-100.00,NW,323,22.0,34.0,54,0.00,,,0.00,0.000000,,2013-01-16 04:51:00,
2013-01-15 22:12:00,34.0,19.0,-100.00,NW,323,22.0,34.0,54,0.00,,,0.00,0.000000,,2013-01-16 05:12:00,
2013-01-15 22:22:00,34.0,19.0,-100.00,NW,323,22.0,34.0,54,0.00,,,0.00,0.000000,,2013-01-16 05:22:00,
2013-01-15 22:32:00,34.0,19.0,-100.00,NW,323,22.0,34.0,54,0.00,,,0.00,0.000000,,2013-01-16 05:32:00,
2013-01-15 22:42:00,34.0,19.0,-100.00,NW,323,22.0,34.0,54,0.00,,,0.00,0.000000,,2013-01-16 05:42:00,
2013-01-15 22:51:00,34.0,19.0,-100.00,NW,316,18.0,32.0,54,0.00,,,0.00,0.000000,,2013-01-16 05:51:00,
2013-01-15 23:22:00,34.0,19.0,-100.00,NW,316,18.0,32.0,54,0.00,,,0.00,0.000000,,2013-01-16 06:22:00,
2013-01-15 23:32:00,34.0,19.0,-100.00,NW,316,18.0,32.0,54,0.00,,,0.00,0.000000,,2013-01-16 06:32:00,
2013-01-15 23:43:00,34.0,19.0,-100.00,NW,316,18.0,32.0,54,0.00,,,0.00,0.000000,,2013-01-16 06:43:00,
2013-01-15 23:51:00,35.0,20.0,-100.00,NW,319,18.0,26.0,54,0.00,,,0.00,0.000000,,2013-01-16 06:51:00,